When you browse on this site, cookies collect data to enhance your experience and personalize the content and advertising you see.
Visit our Privacy Policy to learn more. By continuing to use the site, you agree to this use of cookies and data.
  • în România
  • Lista ţărilor
  • Pe 7 zile
  • Temperatura apei
  • Hartă satelitară
  • Meteo pe hartă
  • Widget-uri
  • user-avatar
    Intrare

    Meteo pe oră la Krasnoe Pole

    Astăzi, 23 Aprilie, Marţi

    Timp Temperatura Precipitaţii Vânt Presiune Umiditate
    00:00 +3°C° 0 mm 3 m/s 733 mmHg 85%
    01:00 +3°C° 0 mm 3 m/s 733 mmHg 86%
    02:00 +2°C° 0 mm 3 m/s 733 mmHg 87%
    03:00 +3°C° 0 mm 2 m/s 733 mmHg 88%
    04:00 +3°C° 0 mm 2 m/s 733 mmHg 86%
    05:00 +3°C° 0 mm 2 m/s 734 mmHg 85%
    06:00 +3°C° 0 mm 2 m/s 734 mmHg 83%
    07:00 +5°C° 0 mm 2 m/s 734 mmHg 71%
    08:00 +7°C° 0 mm 3 m/s 735 mmHg 59%
    09:00 +8°C° 0 mm 4 m/s 735 mmHg 47%
    10:00 +11°C° 0 mm 4 m/s 735 mmHg 44%
    11:00 +12°C° 0 mm 4 m/s 735 mmHg 41%
    12:00 +13°C° 0 mm 5 m/s 735 mmHg 38%
    13:00 +13°C° 0 mm 4 m/s 735 mmHg 38%
    14:00 +14°C° 0 mm 4 m/s 735 mmHg 38%
    15:00 +14°C° 0 mm 4 m/s 735 mmHg 37%
    16:00 +13°C° 0 mm 3 m/s 735 mmHg 41%
    17:00 +13°C° 0 mm 3 m/s 735 mmHg 45%
    18:00 +13°C° 0 mm 2 m/s 736 mmHg 49%
    19:00 +12°C° 0 mm 2 m/s 736 mmHg 51%
    20:00 +10°C° 0 mm 1 m/s 736 mmHg 53%
    21:00 +9°C° 0 mm 1 m/s 737 mmHg 55%
    22:00 +8°C° 0 mm 1 m/s 737 mmHg 57%
    23:00 +8°C° 0 mm 1 m/s 737 mmHg 58%

    Mâine, 24 Aprilie, Miercuri

    Timp Temperatura Precipitaţii Vânt Presiune Umiditate
    00:00 +6°C° 0 mm 2 m/s 737 mmHg 60%
    01:00 +6°C° 0 mm 2 m/s 737 mmHg 60%
    02:00 +6°C° 0 mm 2 m/s 737 mmHg 61%
    03:00 +6°C° 0 mm 2 m/s 737 mmHg 61%
    04:00 +6°C° 0 mm 2 m/s 737 mmHg 61%
    05:00 +6°C° 0 mm 2 m/s 737 mmHg 61%
    06:00 +6°C° 0 mm 2 m/s 737 mmHg 61%
    07:00 +8°C° 0 mm 2 m/s 737 mmHg 55%
    08:00 +11°C° 0 mm 3 m/s 737 mmHg 50%
    09:00 +13°C° 0 mm 3 m/s 737 mmHg 45%
    10:00 +14°C° 0 mm 3 m/s 737 mmHg 43%
    11:00 +16°C° 0 mm 3 m/s 736 mmHg 42%
    12:00 +16°C° 0 mm 3 m/s 736 mmHg 40%
    13:00 +15°C° 0 mm 4 m/s 736 mmHg 42%
    14:00 +15°C° 0 mm 4 m/s 736 mmHg 43%
    15:00 +17°C° 0 mm 4 m/s 736 mmHg 44%
    16:00 +15°C° 0 mm 4 m/s 736 mmHg 49%
    17:00 +14°C° 0 mm 3 m/s 736 mmHg 53%
    18:00 +14°C° 0 mm 3 m/s 736 mmHg 58%
    19:00 +12°C° 0 mm 3 m/s 736 mmHg 62%
    20:00 +12°C° 0 mm 2 m/s 736 mmHg 66%
    21:00 +9°C° 0 mm 2 m/s 736 mmHg 70%
    22:00 +9°C° 0 mm 2 m/s 736 mmHg 70%
    23:00 +9°C° 0 mm 2 m/s 736 mmHg 70%

    Poimâine, 25 Aprilie, Joi

    Timp Temperatura Precipitaţii Vânt Presiune Umiditate
    00:00 +9°C° 0 mm 2 m/s 736 mmHg 71%
    01:00 +8°C° 0 mm 2 m/s 736 mmHg 71%
    02:00 +8°C° 0 mm 3 m/s 736 mmHg 71%
    03:00 +8°C° 0 mm 3 m/s 736 mmHg 71%
    04:00 +8°C° 0 mm 3 m/s 736 mmHg 70%
    05:00 +8°C° 0 mm 3 m/s 736 mmHg 68%
    06:00 +9°C° 0 mm 3 m/s 736 mmHg 67%
    07:00 +10°C° 0 mm 3 m/s 736 mmHg 64%
    08:00 +12°C° 0 mm 3 m/s 736 mmHg 61%
    09:00 +13°C° 0 mm 3 m/s 736 mmHg 58%
    10:00 +14°C° 0 mm 3 m/s 736 mmHg 55%
    11:00 +17°C° 0 mm 3 m/s 735 mmHg 52%
    12:00 +18°C° 0 mm 3 m/s 735 mmHg 49%
    13:00 +18°C° 0.1 mm 3 m/s 735 mmHg 49%
    14:00 +19°C° 0.1 mm 3 m/s 735 mmHg 49%
    15:00 +19°C° 0.1 mm 3 m/s 735 mmHg 49%
    16:00 +18°C° 0.1 mm 3 m/s 735 mmHg 53%
    17:00 +18°C° 0.1 mm 2 m/s 735 mmHg 58%
    18:00 +17°C° 0.1 mm 2 m/s 735 mmHg 62%
    19:00 +15°C° 0 mm 2 m/s 735 mmHg 66%
    20:00 +14°C° 0 mm 1 m/s 735 mmHg 71%
    21:00 +12°C° 0 mm 1 m/s 735 mmHg 75%
    22:00 +12°C° 0 mm 1 m/s 735 mmHg 76%
    23:00 +12°C° 0 mm 1 m/s 735 mmHg 76%

    26 Aprilie, Vineri

    Timp Temperatura Precipitaţii Vânt Presiune Umiditate
    00:00 +11°C° 0 mm 1 m/s 735 mmHg 77%
    01:00 +11°C° 0 mm 1 m/s 734 mmHg 77%
    02:00 +10°C° 0 mm 1 m/s 734 mmHg 77%
    03:00 +10°C° 0 mm 1 m/s 734 mmHg 77%
    04:00 +10°C° 0 mm 1 m/s 734 mmHg 76%
    05:00 +10°C° 0 mm 1 m/s 734 mmHg 75%
    06:00 +10°C° 0 mm 1 m/s 734 mmHg 74%
    07:00 +13°C° 0 mm 1 m/s 734 mmHg 68%
    08:00 +15°C° 0 mm 2 m/s 734 mmHg 62%
    09:00 +17°C° 0 mm 3 m/s 734 mmHg 55%
    10:00 +18°C° 0 mm 3 m/s 734 mmHg 52%
    11:00 +19°C° 0 mm 4 m/s 733 mmHg 49%
    12:00 +20°C° 0 mm 5 m/s 733 mmHg 46%
    13:00 +20°C° 0 mm 5 m/s 733 mmHg 46%
    14:00 +20°C° 0 mm 5 m/s 732 mmHg 46%
    15:00 +20°C° 0 mm 6 m/s 732 mmHg 45%
    16:00 +20°C° 0 mm 5 m/s 732 mmHg 50%
    17:00 +19°C° 0 mm 4 m/s 732 mmHg 54%
    18:00 +18°C° 0 mm 4 m/s 732 mmHg 58%
    19:00 +16°C° 0 mm 3 m/s 732 mmHg 62%
    20:00 +14°C° 0 mm 3 m/s 732 mmHg 66%
    21:00 +12°C° 0 mm 3 m/s 733 mmHg 69%
    22:00 +13°C° 0 mm 2 m/s 733 mmHg 70%
    23:00 +12°C° 0 mm 2 m/s 732 mmHg 71%

    27 Aprilie, Sâmbătă

    Timp Temperatura Precipitaţii Vânt Presiune Umiditate
    00:00 +12°C° 0 mm 2 m/s 732 mmHg 71%
    01:00 +10°C° 0 mm 2 m/s 732 mmHg 71%
    02:00 +10°C° 0 mm 2 m/s 732 mmHg 71%
    03:00 +10°C° 0 mm 2 m/s 732 mmHg 71%
    04:00 +10°C° 0 mm 2 m/s 732 mmHg 71%
    05:00 +10°C° 0 mm 2 m/s 732 mmHg 71%
    06:00 +10°C° 0 mm 2 m/s 732 mmHg 71%
    07:00 +12°C° 0 mm 3 m/s 732 mmHg 62%
    08:00 +14°C° 0 mm 4 m/s 732 mmHg 54%
    09:00 +17°C° 0 mm 5 m/s 732 mmHg 45%
    10:00 +17°C° 0 mm 6 m/s 731 mmHg 45%
    11:00 +19°C° 0 mm 6 m/s 731 mmHg 44%
    12:00 +20°C° 0 mm 6 m/s 731 mmHg 43%
    13:00 +20°C° 0 mm 6 m/s 730 mmHg 44%
    14:00 +20°C° 0 mm 6 m/s 730 mmHg 45%
    15:00 +21°C° 0 mm 6 m/s 730 mmHg 45%
    16:00 +20°C° 0 mm 5 m/s 730 mmHg 50%
    17:00 +19°C° 0 mm 4 m/s 730 mmHg 55%
    18:00 +19°C° 0 mm 4 m/s 730 mmHg 59%
    19:00 +17°C° 0 mm 4 m/s 730 mmHg 63%
    20:00 +14°C° 0 mm 3 m/s 730 mmHg 67%
    21:00 +12°C° 0 mm 3 m/s 730 mmHg 71%
    22:00 +12°C° 0 mm 3 m/s 730 mmHg 71%
    23:00 +12°C° 0 mm 2 m/s 730 mmHg 71%

    28 Aprilie, Duminică

    Timp Temperatura Precipitaţii Vânt Presiune Umiditate
    00:00 +10°C° 0 mm 2 m/s 730 mmHg 71%
    01:00 +11°C° 0 mm 1 m/s 730 mmHg 71%
    02:00 +10°C° 0 mm 1 m/s 729 mmHg 71%
    03:00 +10°C° 0 mm 1 m/s 729 mmHg 71%
    04:00 +10°C° 0 mm 1 m/s 729 mmHg 70%
    05:00 +10°C° 0 mm 1 m/s 729 mmHg 70%
    06:00 +9°C° 0 mm 0 m/s 729 mmHg 69%
    07:00 +13°C° 0 mm 1 m/s 729 mmHg 63%
    08:00 +15°C° 0 mm 1 m/s 729 mmHg 58%
    09:00 +18°C° 0 mm 1 m/s 729 mmHg 52%
    10:00 +20°C° 0 mm 1 m/s 729 mmHg 50%
    11:00 +20°C° 0 mm 2 m/s 729 mmHg 48%
    12:00 +21°C° 0 mm 2 m/s 729 mmHg 46%
    13:00 +21°C° 0 mm 2 m/s 728 mmHg 45%
    14:00 +23°C° 0 mm 2 m/s 728 mmHg 44%
    15:00 +23°C° 0 mm 2 m/s 728 mmHg 42%
    16:00 +21°C° 0 mm 2 m/s 728 mmHg 47%
    17:00 +21°C° 0 mm 2 m/s 728 mmHg 51%
    18:00 +20°C° 0 mm 2 m/s 728 mmHg 56%
    19:00 +19°C° 0 mm 1 m/s 728 mmHg 61%
    20:00 +16°C° 0 mm 1 m/s 728 mmHg 67%
    21:00 +15°C° 0 mm 1 m/s 729 mmHg 73%
    22:00 +14°C° 0 mm 1 m/s 729 mmHg 74%
    23:00 +14°C° 0 mm 1 m/s 729 mmHg 75%
    Arată mai mult